EW9559 Weather Reports


Display with metric or nautical units.
time (UTC)temp
F
wind
direction
speed
MPH
gust
MPH
rain 1hr
in
rain 24hr
in
rain mn
in
humidity
%
barometer
mb
20260904094532 49 270 0.0 0.0 0.00 0.00 0.00 93 1015.0
20260904093028 49 270 0.0 0.0 0.00 0.00 0.00 93 1014.9
20260904091626 0 0 0.0 0.0 0.00 0.00 0.00 100
20260904090030 49 270 0.0 1.0 0.00 0.00 0.00 91 1014.9
20260904084603 50 270 0.0 0.0 0.00 0.00 0.00 91 1014.8
20260904083146 50 270 0.0 0.0 0.00 0.00 0.00 91 1014.7
20260904081606 50 256 0.0 2.0 0.00 0.00 0.00 90 1014.6
20260904080033 51 247 0.0 1.0 0.00 0.00 0.00 90 1014.8
20260904074530 51 247 0.0 2.0 0.00 0.00 0.00 90 1014.8
20260904073031 51 247 0.0 1.0 0.00 0.00 0.00 90 1014.8
20260904061530 51 247 0.0 0.0 0.00 0.00 0.00 89 1014.6
20260904060047 51 247 0.0 1.0 0.00 0.00 0.00 88 1014.6
20260904054531 52 247 0.0 1.0 0.00 0.00 0.00 87 1014.6
20260904053105 53 247 0.0 0.0 0.00 0.00 0.00 86 1014.5
20260904051529 53 247 0.0 2.0 0.00 0.00 0.00 86 1014.6
20260904050029 53 247 0.0 1.0 0.00 0.00 0.00 85 1014.7
20260904044529 53 247 0.0 2.0 0.00 0.00 0.00 85 1014.7
20260904043027 53 252 0.0 1.0 0.00 0.00 0.00 84 1014.6
20260904040107 54 270 0.0 1.0 0.00 0.00 0.00 84 1014.7
20260904034533 54 248 0.0 2.0 0.00 0.00 0.00 84 1014.6
20260904033028 54 249 0.0 3.0 0.00 0.00 0.00 85 1014.5
20260904030106 55 264 0.0 5.0 0.00 0.00 0.00 86 1014.2
20260904021529 56 274 0.0 3.0 0.00 0.01 0.00 84 1013.9
20260904020029 56 266 0.0 2.0 0.00 0.02 0.00 82 1013.9
20260904014542 56 268 0.0 7.0 0.00 0.12 0.00 80 1013.9
20260904010033 59 268 0.0 3.0 0.00 0.13 0.00 76 1013.9
20260904004531 60 284 0.0 3.0 0.00 0.14 0.00 76 1013.7
20260904003031 60 291 0.0 2.0 0.00 0.14 0.00 76 1013.6
20260904001529 61 286 0.0 3.0 0.00 0.16 0.00 77 1013.7
20260904000032 58 265 0.0 3.0 0.00 0.17 0.00 82 1013.8
20260903234604 57 262 0.0 7.0 0.00 0.19 0.00 83 1013.9
20260903233032 57 271 0.0 4.0 0.00 0.19 0.00 78 1014.0
20260903231602 58 276 0.0 5.0 0.00 0.20 0.00 75 1014.1
20260903230108 59 277 0.0 4.0 0.00 0.20 0.00 74 1014.1
20260903224530 59 269 1.0 7.0 0.00 0.21 0.00 74 1014.0
20260903223029 59 269 1.0 10.0 0.00 0.21 0.00 74 1013.9
20260903221531 60 269 1.0 5.0 0.00 0.22 0.00 72 1013.9
20260903220029 62 272 0.0 6.0 0.00 0.23 0.00 68 1013.9
20260903214530 65 271 1.0 6.0 0.00 0.23 0.00 62 1013.8
20260903213109 68 271 0.0 4.0 0.00 0.24 0.00 59 1013.8
20260903211533 67 274 0.0 3.0 0.00 0.25 0.00 59 1013.8
20260903204529 65 292 0.0 0.0 0.00 0.27 0.00 62 1013.9
20260903203146 65 302 0.0 0.0 0.00 0.28 0.00 64 1014.0
20260903194604 66 240 0.0 2.0 0.00 0.30 0.00 63 1014.5
20260903193029 65 312 0.0 4.0 0.00 0.31 0.00 66 1014.6
20260903191530 65 294 0.0 2.0 0.00 0.31 0.00 65 1014.8
20260903190031 66 210 0.0 4.0 0.00 0.31 0.00 67 1015.0
20260903184532 65 221 0.0 3.0 0.00 0.31 0.00 71 1015.1
20260903181606 62 309 0.0 3.0 0.00 0.31 0.00 79 1015.2
20260903180032 61 330 0.0 5.0 0.00 0.31 0.00 84 1015.2
20260903173031 56 289 0.0 1.0 0.00 0.31 0.00 96 1015.4
20260903171531 54 317 0.0 0.0 0.00 0.31 0.00 97 1015.4
20260903170030 53 256 0.0 2.0 0.00 0.31 0.00 98 1015.6
20260903164530 52 269 0.0 0.0 0.00 0.31 0.00 98 1015.6
20260903163103 51 314 0.0 0.0 0.00 0.31 0.00 98 1015.4
20260903160040 51 247 0.0 0.0 0.00 0.31 0.00 98 1015.5
20260903153031 51 247 0.0 0.0 0.00 0.31 0.00 98 1015.5
20260903151529 51 247 0.0 0.0 0.00 0.31 0.00 98 1015.6
20260903150030 50 247 0.0 1.0 0.00 0.31 0.00 98 1015.4
20260903144530 49 247 0.0 0.0 0.00 0.31 0.00 97 1015.3
20260903143031 49 247 0.0 1.0 0.00 0.31 0.00 97 1015.2
20260903141605 48 247 0.0 1.0 0.00 0.31 0.00 97 1015.1
20260903140032 47 247 0.0 2.0 0.00 0.31 0.00 97 1015.0
20260903133032 48 247 0.0 1.0 0.00 0.31 0.00 97 1014.8
20260903131530 48 247 0.0 1.0 0.00 0.31 0.00 97 1014.6
20260903124529 48 247 0.0 1.0 0.00 0.31 0.00 97 1014.6
20260903121529 48 244 0.0 1.0 0.00 0.31 0.00 96 1014.7
20260903120029 49 225 0.0 1.0 0.00 0.31 0.00 96 1014.6
20260903114531 49 225 0.0 1.0 0.00 0.31 0.00 96 1014.6
20260903113030 49 225 0.0 1.0 0.00 0.31 0.00 96 1014.6
20260903111531 50 225 0.0 1.0 0.00 0.31 0.00 96 1014.5
20260903110031 50 225 0.0 2.0 0.00 0.31 0.00 96 1014.4
20260903104531 50 225 0.0 1.0 0.00 0.31 0.00 96 1014.4
20260903103103 51 225 0.0 0.0 0.00 0.31 0.00 96 1014.3
20260903101530 51 225 0.0 0.0 0.00 0.31 0.00 96 1014.2
20260903100031 52 225 0.0 0.0 0.00 0.31 0.00 96 1014.2